Regional Weather Roundup
Issued by NWS

Current Version | Previous Version | Text Only | Print | Product List | Glossary On
Versions: 1 2 3 4 5 6 7 8 9 10 11 12 13 14 15 16 17 18 19 20 21 22 23 24 25 26 27 28 29 30 31 32 33 34 35 36 37 38 39 40 41 42 43 44 45 46 47 48 49 50
000
ASUS43 KTOP 131359
RWRKS

WEATHER ROUNDUP FOR KANSAS
NATIONAL WEATHER SERVICE GOODLAND KS
800 AM CST SAT FEB 13 2016

NOTE:  "FAIR" INDICATES FEW OR NO CLOUDS BELOW 12,000 FEET WITH NO
SIGNIFICANT WEATHER AND/OR OBSTRUCTIONS TO VISIBILITY.

KSZ001>006-013>018-027>032-041>047-131500-
NORTHWEST KANSAS

CITY           SKY/WX    TMP DP  RH WIND       PRES   REMARKS
GOODLAND       FOG       25  24  96 S22       30.23S VSB 1/2 WCI  10
HAYS           CLOUDY    21   9  58 SE13      30.42F WCI   9
HILL CITY      CLOUDY    20  15  81 SE14      30.40F WCI   7
RUSSELL        CLOUDY    20  16  84 SE10      30.43S WCI   9
$$

KSZ061>065-074>080-084>089-131500-
SOUTHWEST KANSAS

CITY           SKY/WX    TMP DP  RH WIND       PRES   REMARKS
DODGE CITY     CLOUDY    20  16  84 SE9       30.36F
ELKHART          N/A     24  19  81 SE12        N/A  WCI  13
GARDEN CITY    CLOUDY    23  20  88 SE13      30.32S FOG     WCI  11
GREAT BEND     CLOUDY    19   9  63 E9        30.45R
LIBERAL        CLOUDY    27  21  80 SE14      30.31F WCI  15
$$

KSZ066>073-081>083-090>101-131500-
SOUTHEAST KANSAS

CITY           SKY/WX    TMP DP  RH WIND       PRES   REMARKS
CHANUTE        CLOUDY    22   5  48 E12G18    30.55S WCI  10
COFFEYVILLE    CLOUDY    25   8  48 NE12      30.56R WCI  14
HUTCHINSON     CLOUDY    21  11  65 E9        30.48S
MEDICINE LODGE   N/A     24  15  68 E7        30.44F
NEWTON         PTCLDY    19   5  53 E12       30.49F WCI   7
PARSONS        CLOUDY    24   9  52 NE6       30.56R
WICHITA INTL   CLOUDY    23   7  50 E13       30.49R WCI  11
WICHITA JABRA  CLOUDY    21   6  52 E13       30.49S WCI   9
WINFIELD       PTCLDY    24   7  48 E10       30.50S WCI  14
$$

KSZ007>012-019>026-033>040-048>060-102>105-131500-
NORTHEAST KANSAS

CITY           SKY/WX    TMP DP  RH WIND       PRES   REMARKS
CONCORDIA      CLOUDY    19   6  57 E10       30.49F WCI   7
EMPORIA        PTCLDY    20   8  60 E10       30.53S WCI   9
LAWRENCE       CLOUDY    18   3  52 E9        30.60F
MANHATTAN      CLOUDY    19   4  51 E12       30.54F WCI   7
OLATHE IND     CLOUDY    17   0  47 E8        30.58F
OLATHE EXE     CLOUDY    16   0  49 E8        30.58F
SALINA         CLOUDY    21   9  59 E8        30.51S
TOPEKA BILLARD CLOUDY    20   2  45 E10       30.59F WCI   9
TOPEKA FORBES  CLOUDY    20   3  48 E9        30.56F
$$



USA.gov is the U.S. government's official web portal to all federal, state and local government web resources and services.